Location: Aiyede
(8.4833°N, 4.4500°E)
Time: 09:29:27
(UTC+00:00)

Cosmos 1943 - Pass Details

Date: 24 September 2020
Orbit: 833 x 850 km, 71.0° (Epoch: 21 October)

Event Time Altitude Azimuth Distance (km) Brightness Sun altitude
Rises 18:25:40 0° 346° (NNW) 3,391 6.6 -12.9°
Reaches altitude 10° 18:28:06 10° 347° (NNW) 2,459 5.8 -13.5°
Maximum altitude 18:33:46 82° 74° (ENE) 857 3.1 -14.9°
Drops below altitude 10° 18:39:27 10° 162° (SSE) 2,469 5.4 -16.3°
Sets 18:41:54 0° 163° (SSE) 3,406 6.2 -16.9°
